When you browse on this site, cookies collect data to enhance your experience and personalize the content and advertising you see.
Visit our Privacy Policy to learn more. By continuing to use the site, you agree to this use of cookies and data.
  • In Austria
  • List of Countries
  • For 7 days
  • Water Temperature
  • Weather Map
  • News
  • Weather Widgets
  • user-avatar
    Login

    Hourly Weather Lyahovo

    Today, 7 June, Sunday

    Time Temperature Precipitation Wind Pressure Humidity
    00:00 +14°C° 0 mm 1 mps 744 mmHg 94%
    01:00 +14°C° 0 mm 1 mps 745 mmHg 94%
    02:00 +13°C° 0 mm 1 mps 745 mmHg 94%
    03:00 +12°C° 0 mm 0 mps 745 mmHg 93%
    04:00 +13°C° 0 mm 0 mps 746 mmHg 93%
    05:00 +13°C° 0 mm 0 mps 746 mmHg 92%
    06:00 +15°C° 0 mm 0 mps 746 mmHg 86%
    07:00 +17°C° 0 mm 0 mps 747 mmHg 80%
    08:00 +20°C° 0 mm 0 mps 747 mmHg 73%
    09:00 +23°C° 0 mm 1 mps 747 mmHg 65%
    10:00 +25°C° 0 mm 1 mps 747 mmHg 58%
    11:00 +26°C° 0 mm 1 mps 747 mmHg 50%
    12:00 +26°C° 0 mm 1 mps 747 mmHg 48%
    13:00 +27°C° 0 mm 2 mps 747 mmHg 47%
    14:00 +27°C° 0 mm 2 mps 748 mmHg 46%
    15:00 +27°C° 0 mm 2 mps 747 mmHg 50%
    16:00 +27°C° 0 mm 2 mps 747 mmHg 53%
    17:00 +26°C° 0 mm 2 mps 746 mmHg 57%
    18:00 +24°C° 0 mm 2 mps 746 mmHg 66%
    19:00 +23°C° 0 mm 2 mps 746 mmHg 74%
    20:00 +20°C° 0 mm 2 mps 746 mmHg 82%
    21:00 +19°C° 0 mm 2 mps 746 mmHg 84%
    22:00 +18°C° 0 mm 2 mps 746 mmHg 85%
    23:00 +18°C° 0 mm 2 mps 746 mmHg 87%

    Tomorrow, 8 June, Monday

    Time Temperature Precipitation Wind Pressure Humidity
    00:00 +18°C° 0.3 mm 2 mps 746 mmHg 89%
    01:00 +17°C° 0.3 mm 2 mps 746 mmHg 91%
    02:00 +17°C° 0.3 mm 2 mps 746 mmHg 93%
    03:00 +17°C° 0 mm 2 mps 746 mmHg 94%
    04:00 +18°C° 0 mm 2 mps 746 mmHg 94%
    05:00 +18°C° 0 mm 2 mps 746 mmHg 95%
    06:00 +19°C° 0 mm 2 mps 746 mmHg 89%
    07:00 +21°C° 0 mm 3 mps 746 mmHg 84%
    08:00 +24°C° 0 mm 3 mps 746 mmHg 79%
    09:00 +25°C° 0 mm 3 mps 746 mmHg 71%
    10:00 +26°C° 0 mm 4 mps 746 mmHg 64%
    11:00 +28°C° 0 mm 4 mps 746 mmHg 56%
    12:00 +28°C° 0 mm 4 mps 746 mmHg 55%
    13:00 +29°C° 0 mm 4 mps 746 mmHg 54%
    14:00 +29°C° 0 mm 4 mps 746 mmHg 53%
    15:00 +29°C° 0 mm 4 mps 746 mmHg 55%
    16:00 +28°C° 0 mm 3 mps 746 mmHg 58%
    17:00 +28°C° 0 mm 3 mps 745 mmHg 61%
    18:00 +26°C° 0 mm 3 mps 745 mmHg 69%
    19:00 +24°C° 0 mm 2 mps 746 mmHg 78%
    20:00 +21°C° 0 mm 2 mps 746 mmHg 87%
    21:00 +21°C° 0 mm 2 mps 746 mmHg 90%
    22:00 +20°C° 0 mm 2 mps 746 mmHg 92%
    23:00 +19°C° 0 mm 2 mps 746 mmHg 95%

    Day after tomorrow, 9 June, Tuesday

    Time Temperature Precipitation Wind Pressure Humidity
    00:00 +18°C° 0 mm 2 mps 746 mmHg 95%
    01:00 +18°C° 0 mm 2 mps 746 mmHg 96%
    02:00 +18°C° 0 mm 2 mps 746 mmHg 96%
    03:00 +18°C° 0 mm 2 mps 746 mmHg 95%
    04:00 +18°C° 0 mm 2 mps 747 mmHg 94%
    05:00 +19°C° 0 mm 2 mps 747 mmHg 94%
    06:00 +21°C° 0 mm 2 mps 747 mmHg 87%
    07:00 +23°C° 0 mm 2 mps 747 mmHg 80%
    08:00 +25°C° 0 mm 2 mps 747 mmHg 73%
    09:00 +26°C° 0 mm 2 mps 747 mmHg 67%
    10:00 +28°C° 0 mm 3 mps 747 mmHg 61%
    11:00 +29°C° 0 mm 3 mps 747 mmHg 56%
    12:00 +29°C° 0 mm 3 mps 747 mmHg 53%
    13:00 +29°C° 0 mm 3 mps 747 mmHg 50%
    14:00 +30°C° 0 mm 3 mps 747 mmHg 48%
    15:00 +30°C° 0 mm 3 mps 747 mmHg 51%
    16:00 +29°C° 0 mm 2 mps 747 mmHg 53%
    17:00 +29°C° 0 mm 2 mps 747 mmHg 56%
    18:00 +27°C° 0 mm 1 mps 747 mmHg 65%
    19:00 +25°C° 0 mm 1 mps 747 mmHg 74%
    20:00 +23°C° 0 mm 1 mps 747 mmHg 83%
    21:00 +22°C° 0 mm 1 mps 747 mmHg 86%
    22:00 +21°C° 0 mm 1 mps 747 mmHg 90%
    23:00 +20°C° 0 mm 1 mps 747 mmHg 94%

    10 June, Wednesday

    Time Temperature Precipitation Wind Pressure Humidity
    00:00 +20°C° 0 mm 1 mps 747 mmHg 94%
    01:00 +20°C° 0 mm 1 mps 747 mmHg 95%
    02:00 +19°C° 0 mm 1 mps 747 mmHg 96%
    03:00 +20°C° 0 mm 1 mps 747 mmHg 95%
    04:00 +20°C° 0 mm 1 mps 747 mmHg 94%
    05:00 +20°C° 0 mm 1 mps 747 mmHg 93%
    06:00 +22°C° 0 mm 1 mps 747 mmHg 86%
    07:00 +24°C° 0 mm 1 mps 747 mmHg 78%
    08:00 +26°C° 0 mm 1 mps 747 mmHg 70%
    09:00 +27°C° 0.6 mm 1 mps 747 mmHg 66%
    10:00 +28°C° 0.6 mm 2 mps 747 mmHg 62%
    11:00 +29°C° 0.6 mm 2 mps 747 mmHg 57%
    12:00 +30°C° 0.1 mm 2 mps 747 mmHg 55%
    13:00 +30°C° 0.1 mm 2 mps 747 mmHg 52%
    14:00 +31°C° 0.1 mm 2 mps 746 mmHg 50%
    15:00 +30°C° 0.1 mm 2 mps 746 mmHg 54%
    16:00 +30°C° 0.1 mm 2 mps 746 mmHg 59%
    17:00 +29°C° 0.1 mm 2 mps 746 mmHg 64%
    18:00 +27°C° 0.2 mm 2 mps 746 mmHg 72%
    19:00 +25°C° 0.2 mm 2 mps 746 mmHg 80%
    20:00 +24°C° 0.2 mm 1 mps 746 mmHg 88%
    21:00 +23°C° 0 mm 2 mps 746 mmHg 91%
    22:00 +21°C° 0 mm 2 mps 746 mmHg 93%
    23:00 +20°C° 0 mm 2 mps 746 mmHg 96%

    11 June, Thursday

    Time Temperature Precipitation Wind Pressure Humidity
    00:00 +20°C° 0 mm 2 mps 746 mmHg 96%
    01:00 +20°C° 0 mm 1 mps 746 mmHg 96%
    02:00 +20°C° 0 mm 1 mps 746 mmHg 97%
    03:00 +20°C° 0 mm 1 mps 746 mmHg 97%
    04:00 +19°C° 0 mm 2 mps 746 mmHg 96%
    05:00 +19°C° 0 mm 2 mps 746 mmHg 96%
    06:00 +21°C° 0 mm 2 mps 747 mmHg 90%
    07:00 +24°C° 0 mm 2 mps 747 mmHg 84%
    08:00 +26°C° 0 mm 2 mps 747 mmHg 78%
    09:00 +27°C° 0.1 mm 2 mps 747 mmHg 71%
    10:00 +28°C° 0.1 mm 2 mps 747 mmHg 65%
    11:00 +30°C° 0.1 mm 3 mps 747 mmHg 58%
    12:00 +30°C° 0 mm 3 mps 747 mmHg 56%
    13:00 +30°C° 0 mm 3 mps 746 mmHg 54%
    14:00 +31°C° 0 mm 3 mps 746 mmHg 52%
    15:00 +31°C° 0 mm 2 mps 746 mmHg 54%
    16:00 +30°C° 0 mm 2 mps 746 mmHg 57%
    17:00 +30°C° 0 mm 2 mps 746 mmHg 59%
    18:00 +28°C° 0 mm 2 mps 746 mmHg 67%
    19:00 +26°C° 0 mm 2 mps 746 mmHg 75%
    20:00 +24°C° 0 mm 1 mps 746 mmHg 82%
    21:00 +23°C° 0.1 mm 1 mps 746 mmHg 85%
    22:00 +22°C° 0.1 mm 1 mps 746 mmHg 88%
    23:00 +21°C° 0.1 mm 1 mps 746 mmHg 90%

    12 June, Friday

    Time Temperature Precipitation Wind Pressure Humidity
    00:00 +21°C° 0 mm 1 mps 746 mmHg 91%
    01:00 +20°C° 0 mm 1 mps 746 mmHg 92%
    02:00 +20°C° 0 mm 1 mps 745 mmHg 93%
    03:00 +20°C° 0 mm 1 mps 745 mmHg 92%
    04:00 +20°C° 0 mm 1 mps 745 mmHg 92%
    05:00 +20°C° 0 mm 1 mps 746 mmHg 91%
    06:00 +21°C° 0 mm 2 mps 746 mmHg 86%
    07:00 +24°C° 0 mm 2 mps 746 mmHg 80%
    08:00 +25°C° 0 mm 2 mps 746 mmHg 75%
    09:00 +27°C° 0 mm 2 mps 746 mmHg 68%
    10:00 +28°C° 0 mm 2 mps 746 mmHg 62%
    11:00 +29°C° 0 mm 2 mps 746 mmHg 56%
    12:00 +30°C° 0 mm 2 mps 746 mmHg 53%
    13:00 +30°C° 0 mm 2 mps 745 mmHg 51%
    14:00 +31°C° 0 mm 2 mps 745 mmHg 49%
    15:00 +31°C° 0 mm 2 mps 745 mmHg 52%
    16:00 +30°C° 0 mm 2 mps 745 mmHg 55%
    17:00 +30°C° 0 mm 2 mps 745 mmHg 58%
    18:00 +28°C° 0.1 mm 2 mps 745 mmHg 66%
    19:00 +26°C° 0.1 mm 2 mps 745 mmHg 74%
    20:00 +24°C° 0.1 mm 2 mps 745 mmHg 82%
    21:00 +23°C° 0 mm 2 mps 745 mmHg 85%
    22:00 +21°C° 0 mm 2 mps 745 mmHg 89%
    23:00 +20°C° 0 mm 2 mps 745 mmHg 92%
    Show more